Nantucket, MA

7:08 PM EST on February 27, 2017 (GMT -0500)
Nantucket Memorial

Weather History for KACK - November, 2013

Change the Weather History Date:

Thursday, November 7, 2013

  Actual Average Record
Temperature  
Mean Temperature 56 °F -  
Max Temperature 63 °F 56 °F 68 °F (1971)
Min Temperature 48 °F 42 °F 33 °F (1949)
Degree Days  
Heating Degree Days 10    
Growing Degree Days 6 (Base 50)    
Moisture  
Dew Point 54 °F    
Average Humidity 91    
Maximum Humidity 100    
Minimum Humidity 71    
Precipitation  
Precipitation 1.44 in - - ()
Sea Level Pressure  
Sea Level Pressure 29.81 in    
Wind  
Wind Speed 14 mph (WSW)    
Max Wind Speed 23 mph    
Max Gust Speed 32 mph    
Visibility 6 miles    
Events Rain    
Averages and records for this station are not official NWS values.
T = Trace of Precipitation, MM = Missing Value Source: NWS Daily Summary

Daily Weather History Graph

Daily Weather History Graph

Search for Another Location

Airport or City:

Trip Planner

Search our weather history database for the weather conditions in past years. The results will help you decide how hot, cold, wet, or windy it might be!

Date:

Astronomy

Nov. 07, 2013 Rise Set
Actual Time 6:18 AM EST 4:28 PM EST
Civil Twilight 5:49 AM EST 4:57 PM EST
Nautical Twilight 5:16 AM EST 5:30 PM EST
Astronomical Twilight 4:44 AM EST 6:02 PM EST
Moon 10:25 AM EST (11/7) 8:35 PM EST (11/7)
Length of Visible Light 11h 07m
Length of Day
10h 09m
Waxing Crescent, 22% of the Moon is Illuminated
Nov 7
Waxing Crescent
Nov 10
First Quarter
Nov 17
Full
Nov 25
Last Quarter
Dec 2
New

Hourly Weather History & Observations

Time (EST) Temp. Dew Point Humidity Pressure Visibility Wind Dir Wind Speed Gust Speed Precip Events Conditions
12:53 AM 55.9 °F 54.0 °F 93% 30.11 in 10.0 mi SSW 11.5 mph - N/A   Clear
1:53 AM 57.0 °F 54.0 °F 89% 30.08 in 10.0 mi SSW 9.2 mph - N/A   Clear
2:53 AM 57.9 °F 55.0 °F 90% 30.05 in 10.0 mi SSW 12.7 mph - N/A   Mostly Cloudy
3:53 AM 57.9 °F 55.0 °F 90% 30.02 in 10.0 mi South 13.8 mph - N/A   Overcast
4:53 AM 57.9 °F 55.0 °F 90% 29.99 in 10.0 mi South 9.2 mph - N/A   Overcast
5:53 AM 57.9 °F 55.0 °F 90% 29.96 in 10.0 mi South 12.7 mph - N/A   Overcast
6:53 AM 57.9 °F 55.0 °F 90% 29.93 in 9.0 mi South 13.8 mph - 0.01 in   Mostly Cloudy
7:53 AM 61.0 °F 57.0 °F 87% 29.90 in 9.0 mi South 18.4 mph - N/A   Partly Cloudy
8:53 AM 62.1 °F 57.9 °F 86% 29.88 in 9.0 mi South 20.7 mph 28.8 mph N/A   Overcast
9:53 AM 63.0 °F 59.0 °F 87% 29.85 in 8.0 mi South 20.7 mph 28.8 mph N/A   Overcast
10:53 AM 61.0 °F 59.0 °F 93% 29.82 in 3.0 mi South 20.7 mph 31.1 mph 0.02 in Rain Light Rain
11:04 AM 60.8 °F 59.0 °F 94% 29.81 in 1.5 mi SSW 16.1 mph 26.5 mph 0.01 in Rain Rain
11:12 AM 60.8 °F 57.2 °F 88% 29.81 in 1.5 mi SW 11.5 mph - 0.02 in Rain Heavy Rain
11:21 AM 60.8 °F 59.0 °F 94% 29.80 in 1.5 mi SW 12.7 mph - 0.03 in Rain Heavy Rain
11:37 AM 60.8 °F 60.8 °F 100% 29.79 in 0.8 mi SW 20.7 mph 26.5 mph 0.07 in Rain Heavy Rain
11:53 AM 61.0 °F 60.1 °F 97% 29.78 in 1.0 mi WSW 18.4 mph 24.2 mph 0.10 in Rain Heavy Rain
12:05 PM 60.8 °F 60.8 °F 100% 29.78 in 1.5 mi SW 23.0 mph 31.1 mph 0.03 in Rain Heavy Rain
12:18 PM 60.8 °F 60.8 °F 100% 29.77 in 2.0 mi WSW 21.9 mph 29.9 mph 0.07 in Rain Rain
12:30 PM 60.8 °F 59.0 °F 94% 29.76 in 2.0 mi WSW 15.0 mph 24.2 mph 0.09 in Rain Light Rain
12:53 PM 60.1 °F 59.0 °F 96% 29.75 in 2.0 mi SW 16.1 mph - 0.15 in Rain Light Rain
1:09 PM 60.8 °F 59.0 °F 94% 29.74 in 3.0 mi WSW 16.1 mph - 0.04 in Rain Light Rain
1:13 PM 60.8 °F 59.0 °F 94% 29.75 in 2.5 mi WSW 17.3 mph - 0.04 in Rain Light Rain
1:25 PM 60.8 °F 59.0 °F 94% 29.75 in 1.8 mi WSW 21.9 mph 26.5 mph 0.07 in Rain Rain
1:35 PM 60.8 °F 59.0 °F 94% 29.75 in 2.0 mi WSW 17.3 mph 27.6 mph 0.09 in Rain Rain
1:48 PM 60.8 °F 59.0 °F 94% 29.73 in 5.0 mi West 17.3 mph 24.2 mph 0.12 in Rain Light Rain
1:53 PM 60.1 °F 59.0 °F 96% 29.73 in 7.0 mi WSW 15.0 mph 24.2 mph 0.14 in Rain Light Rain
2:39 PM 59.0 °F 57.2 °F 94% 29.73 in 2.0 mi WSW 10.4 mph - 0.09 in Rain Rain
2:53 PM 59.0 °F 57.0 °F 93% 29.73 in 2.0 mi WSW 11.5 mph - 0.12 in Rain Rain
3:53 PM 57.9 °F 57.0 °F 97% 29.71 in 2.0 mi SW 10.4 mph - 0.13 in Rain Rain
4:05 PM 57.2 °F 57.2 °F 100% 29.71 in 2.0 mi SW 10.4 mph - 0.02 in Rain Rain
4:53 PM 57.9 °F 57.0 °F 97% 29.72 in 3.0 mi West 11.5 mph - 0.12 in Rain Rain
5:53 PM 57.0 °F 55.9 °F 96% 29.74 in 5.0 mi West 13.8 mph - 0.11 in Rain Rain
6:07 PM 51.8 °F 50.0 °F 94% 29.74 in 5.0 mi NNW 17.3 mph 32.2 mph 0.03 in Rain Light Rain
6:53 PM 52.0 °F 50.0 °F 93% 29.74 in 5.0 mi NNW 3.5 mph - 0.11 in   Overcast
7:02 PM 51.8 °F 50.0 °F 94% 29.72 in 10.0 mi North 4.6 mph - 0.02 in   Overcast
7:53 PM 52.0 °F 50.0 °F 93% 29.73 in 10.0 mi NW 9.2 mph - 0.11 in   Overcast
8:42 PM 51.8 °F 46.4 °F 82% 29.74 in 10.0 mi NW 15.0 mph 26.5 mph 0.07 in   Overcast
8:53 PM 50.0 °F 45.0 °F 83% 29.74 in 10.0 mi NW 20.7 mph 26.5 mph 0.09 in   Overcast
9:04 PM 50.0 °F 44.6 °F 82% 29.74 in 10.0 mi NW 19.6 mph 27.6 mph 0.02 in   Overcast
9:46 PM 50.0 °F 44.6 °F 82% 29.76 in 10.0 mi NW 18.4 mph 26.5 mph 0.08 in   Overcast
9:53 PM 50.0 °F 43.0 °F 77% 29.77 in 10.0 mi NW 13.8 mph 25.3 mph 0.09 in   Overcast
10:32 PM 48.2 °F 42.8 °F 82% 29.77 in 10.0 mi NW 17.3 mph 26.5 mph 0.05 in   Overcast
10:53 PM 48.9 °F 42.1 °F 77% 29.78 in 10.0 mi NW 17.3 mph 23.0 mph 0.07 in   Overcast
11:40 PM 48.2 °F 39.2 °F 71% 29.78 in 10.0 mi NW 13.8 mph 26.5 mph 0.05 in   Overcast
11:53 PM 48.0 °F 39.9 °F 74% 29.79 in 10.0 mi NW 19.6 mph 27.6 mph 0.07 in   Overcast